Location: Campavaglio
(41.1333°N, 9.2333°E)
Time: 23:12:40
(UTC+00:00)

Cosmos 2360 Rocket - Pass Details

Date: 07 June 2020
Orbit: 832 x 846 km, 71.0° (Epoch: 11 July)

Event Time Altitude Azimuth Distance (km) Brightness Sun altitude
Exits shadow 00:43:37 15° 129° (SE) 2,126 4.1 -23.3°
Maximum altitude 00:45:59 19° 99° (E) 1,901 4.1 -23.2°
Drops below altitude 10° 00:49:46 10° 57° (ENE) 2,454 5.3 -22.9°
Sets 00:52:54 0° 40° (NE) 3,396 6.6 -22.7°
